sat.trackr.live / text

‹ back to catalog

STARLINK-5931

NORAD 56785 · 2023-078U

PAYLOAD ACTIVE UNKNOWN

§ Identity

Operator
Country
US
Launch date
2023-05-31
Launch site
AFWTR
Launch vehicle
Mass (kg)
RCS (m²)

Purposes: comms

External: N2YO · Heavens-Above · Gunter

§ Orbital elements

Epoch: 2026-09-20T06:31:30.018144Z

Period
96.11 min
Inclination
69.9988°
Eccentricity
0.0003369
Mean motion
14.98339675 rev/d
Perigee alt
569.7 km
Apogee alt
574.4 km
Semi-major
6,950.2 km
B*
4.8751e-5
RAAN
213.9670°
Arg perigee
266.4478°
Mean anomaly
93.6296°
Rev number
18,251

§ Raw data

STARLINK-59311 56785U 23078U   26263.27187521  .00000489  00000+0  48751-4 0  99922 56785  69.9988 213.9670 0003369 266.4478  93.6296 14.98339675182515

JSON: /api/v1/satellites/56785 · /tle

For live sub-satellite position, see the globe view (requires WebGL).

§ Visibility from observer

Set your observer location to see the next 7 days of passes ≥ 10°. The values pass through the URL so the page stays shareable.

No JS? Fill the form by hand. The geolocation button needs JavaScript.